Location: Lane
(33.5226°N, 79.8788°W)
Time: 02:19:04
(UTC+00:00)

SR - Pass Details

Date: 29 September 2022
Orbit: 577 x 874 km, 66.7° (Epoch: 06 December)

Event Time Altitude Azimuth Distance (km) Brightness Sun altitude
Rises 03:07:48 0° 219° (SW) 3,375 - -47.8°
Reaches altitude 10° 03:10:17 10° 224° (SW) 2,472 - -48.1°
Maximum altitude 03:15:54 52° 300° (WNW) 1,076 - -49.0°
Drops below altitude 10° 03:21:39 10° 16° (NNE) 2,527 - -49.9°
Sets 03:24:13 0° 21° (NNE) 3,457 - -50.2°
